QPF
0.00 0.00 0.00 0.00 0.00 0.00 0.00 0.00 0.00 0.00 0.00 0.00 0.00 0.00 0.00 0.00 0.00 0.00 0.00 0.00 0.00 0.00
0.00 0.00 0.00 0.00 0.00 0.00 0.00 0.00 0.00 0.00 0.00 0.00 0.00 0.00 0.00 0.00 0.00 0.00 0.00 0.00 0.00 0.00
0.00 0.00 0.00 0.00 0.00 0.00 0.00 0.00 0.00 0.00 0.00 0.00 0.00 0.00 0.00 0.00 0.00 0.00 0.00 0.00 0.00 0.00
0.00 0.00 0.00 0.00 0.00 0.00 0.00 0.00 0.00 0.00 0.00 0.00 0.00 0.00 0.00 0.00 0.00 0.00 0.00 0.00 0.00 0.00
0.00 0.00 0.00 0.00 0.00 0.00 0.00 0.00 0.00 0.00 0.00 0.00 0.00 0.00 0.00 0.00 0.00 0.00 0.00 0.00 0.00 0.00
0.00 0.00 0.00 0.00 0.00 0.00 0.00 0.00 0.00 0.00 0.00 0.00 0.00 0.00 0.00 0.00 0.00 0.00 0.00 0.00 0.00 0.00
0.00 0.00 0.00 0.00 0.00 0.00 0.00 0.00 0.00 0.00 0.00 0.00 0.00 0.00 0.00 0.00 0.00 0.00 0.00 0.00 0.00 0.00
0.00 0.00 0.00 0.00 0.00 0.00 0.01 0.00 0.00 0.00 0.00 0.00 0.00 0.00 0.00 0.00 0.00 0.00 0.00 0.00 0.00 0.00
0.00 0.00 0.00 0.00 0.00 0.00 0.00 0.00 0.00 0.00 0.00 0.00 0.00 0.00 0.01 0.01 0.00 0.00 0.00 0.00 0.00 0.00
0.00 0.00 0.00 0.00 0.00 0.00 0.00 0.00 0.00 0.00 0.00 0.00 0.00 0.00 0.01 0.01 0.01 0.00 0.00 0.00 0.00 0.00
0.00 0.00 0.00 0.00 0.00 0.00 0.00 0.00 0.00 0.00 0.00 0.00 0.00 0.00 0.01 0.02 0.02 0.00 0.00 0.00 0.00 0.00
0.00 0.00 0.00 0.00 0.00 0.00 0.00 0.00 0.00 0.00 0.00 0.00 0.00 0.00 0.01 0.01 0.00 0.00 0.00 0.00 0.00 0.00
0.00 0.00 0.00 0.00 0.00 0.00 0.00 0.00 0.00 0.00 0.00 0.00 0.01 0.02 0.01 0.00 0.00 0.00 0.00 0.00 0.00 0.01
0.00 0.00 0.00 0.00 0.00 0.00 0.00 0.00 0.00 0.00 0.00 0.00 0.01 0.01 0.00 0.00 0.00 0.00 0.00 0.00 0.00 0.01
MSLP
1013.14 1012.36 1011.60 1011.07 1010.50 1009.97 1009.52 1009.05 1008.85 1008.79 1008.74 1008.58 1008.58 1008.54 1008.51 1008.52 1008.52 1008.51 1008.55 1008.48 1008.81 1008.99
1011.61 1010.87 1010.08 1009.49 1009.02 1008.49 1008.25 1007.91 1007.72 1007.62 1007.62 1007.56 1007.54 1007.56 1007.59 1007.57 1007.52 1007.61 1007.69 1007.76 1007.99 1008.22
1010.43 1009.66 1008.96 1008.33 1007.58 1007.16 1006.80 1006.60 1006.50 1006.47 1006.42 1006.47 1006.57 1006.61 1006.70 1006.74 1006.76 1006.87 1006.84 1006.90 1007.06 1007.22
1009.57 1008.71 1007.89 1007.16 1006.52 1006.09 1005.74 1005.44 1005.45 1005.31 1005.17 1005.35 1005.53 1005.60 1005.72 1005.79 1005.89 1005.94 1006.01 1006.11 1006.17 1006.28
1008.70 1007.77 1006.94 1006.17 1005.57 1005.13 1004.74 1004.43 1004.34 1004.19 1004.17 1004.44 1004.59 1004.58 1004.70 1004.79 1004.86 1005.03 1005.16 1005.32 1005.45 1005.61
1007.47 1006.50 1005.64 1004.91 1004.28 1003.77 1003.27 1002.99 1002.94 1002.82 1002.80 1003.06 1003.33 1003.59 1003.79 1003.85 1003.95 1004.09 1004.22 1004.44 1004.55 1004.82
1006.40 1005.47 1004.52 1003.64 1002.84 1002.29 1001.82 1001.60 1001.47 1001.52 1001.57 1001.82 1002.16 1002.57 1002.82 1003.03 1003.16 1003.26 1003.39 1003.53 1003.75 1004.01
1005.45 1004.33 1003.36 1002.39 1001.61 1001.04 1000.56 1000.30 1000.38 1000.54 1000.69 1000.80 1001.01 1001.39 1001.76 1002.05 1002.33 1002.53 1002.78 1002.91 1003.18 1003.31
1004.54 1003.42 1002.61 1001.61 1000.58 999.59 998.65 998.76 999.24 999.52 999.77 1000.07 1000.21 1000.35 1000.61 1001.11 1001.60 1001.95 1002.19 1002.31 1002.56 1002.76
1004.99 1003.91 1003.00 1001.94 1000.20 998.26 996.45 997.18 998.33 998.78 999.17 999.33 999.48 999.81 1000.01 1000.34 1000.69 1001.19 1001.56 1001.78 1001.99 1002.13
1005.76 1004.77 1003.68 1002.25 1000.90 999.66 998.59 998.32 998.59 998.65 998.61 998.61 998.71 999.11 999.37 999.60 999.99 1000.48 1000.86 1001.18 1001.27 1001.43
1006.91 1005.82 1004.72 1003.58 1002.54 1001.62 1000.76 1000.29 999.89 999.39 998.56 997.69 997.73 998.50 999.10 999.49 999.76 1000.25 1000.30 1000.36 1000.54 1000.84
1008.07 1007.09 1006.13 1005.27 1004.35 1003.56 1002.72 1002.30 1001.92 1001.44 1000.88 1000.24 999.55 999.68 1000.09 1000.46 1000.93 1001.10 1001.25 1001.04 1001.43 1001.86
1009.19 1008.32 1007.67 1007.00 1006.23 1005.58 1004.95 1004.46 1003.94 1003.34 1003.23 1002.80 1002.45 1002.29 1002.31 1002.67 1002.79 1003.10 1003.33 1003.93 1004.49 1005.07
Thickness
5362 5362 5363 5362 5362 5362 5362 5365 5365 5364 5363 5364 5365 5366 5367 5370 5373 5375 5379 5384 5385 5386
5368 5366 5367 5365 5363 5362 5360 5359 5358 5357 5357 5358 5359 5359 5360 5364 5369 5372 5376 5379 5381 5384
5368 5368 5368 5367 5368 5366 5365 5363 5360 5357 5355 5354 5354 5355 5356 5360 5365 5368 5373 5377 5380 5383
5369 5371 5371 5371 5371 5369 5368 5366 5362 5360 5359 5355 5353 5353 5356 5359 5363 5367 5370 5373 5377 5381
5374 5375 5375 5375 5375 5373 5371 5369 5365 5363 5361 5357 5356 5356 5355 5358 5362 5365 5368 5371 5374 5377
5384 5384 5384 5384 5383 5382 5381 5378 5374 5372 5369 5365 5363 5363 5363 5365 5367 5369 5371 5374 5377 5377
5396 5396 5397 5398 5398 5395 5394 5390 5386 5382 5378 5374 5371 5369 5370 5371 5372 5375 5377 5378 5379 5379
5410 5413 5414 5415 5415 5411 5408 5404 5397 5392 5387 5386 5383 5381 5379 5379 5379 5380 5380 5381 5381 5383
5430 5433 5431 5432 5434 5435 5434 5425 5414 5407 5401 5397 5395 5394 5393 5390 5387 5386 5387 5388 5389 5391
5437 5439 5438 5439 5448 5460 5469 5453 5436 5426 5418 5413 5409 5406 5404 5402 5400 5397 5397 5398 5399 5403
5439 5440 5442 5446 5456 5462 5465 5460 5450 5443 5439 5434 5429 5424 5420 5419 5417 5413 5412 5412 5414 5418
5438 5442 5443 5447 5451 5454 5458 5456 5454 5452 5456 5461 5454 5446 5440 5435 5432 5429 5431 5432 5431 5433
5439 5440 5441 5443 5446 5446 5450 5449 5448 5447 5446 5449 5454 5451 5445 5442 5438 5435 5432 5439 5439 5438
5441 5441 5441 5441 5441 5441 5441 5440 5441 5443 5438 5438 5439 5440 5439 5434 5431 5428 5427 5425 5424 5424